STARLINK-32272

Last updated on Sat Sep 28 2024 00:02:03 GMT+0000 (Coordinated Universal Time)

1 60735U 24152R 24271.58334491 -.01507627 00000+0 -44159-1 0 9991 2 60735 53.1605 201.8134 0001087 87.6580 137.3272 15.37917810 6027
UTC large
Height (km)
Speed (km/s)
/
Latitude / Longitude
Inclination (degrees)
Orbital Period (minutes)
Azimuth
Elevation
Range (km)
Doppler Factor

Next 0 passes for location: London (51.5072 / 0.1276)

Sorry there are no passes over London.